sat.trackr.live / text

‹ back to catalog

STARLINK-2682

NORAD 48440 · 2021-040N

PAYLOAD ACTIVE UNKNOWN

§ Identity

Operator
Country
US
Launch date
2021-05-09
Launch site
AFETR
Launch vehicle
Mass (kg)
RCS (m²)

Purposes: comms

External: N2YO · Heavens-Above · Gunter

§ Orbital elements

Epoch: 2026-09-20T03:17:13.312032Z

Period
94.01 min
Inclination
53.1592°
Eccentricity
0.0001140
Mean motion
15.31705540 rev/d
Perigee alt
469.9 km
Apogee alt
471.5 km
Semi-major
6,848.9 km
B*
6.5089e-5
RAAN
353.1994°
Arg perigee
90.8156°
Mean anomaly
269.2976°
Rev number
29,647

§ Raw data

STARLINK-26821 48440U 21040N   26263.13695963  .00001656  00000+0  65089-4 0  99972 48440  53.1592 353.1994 0001140  90.8156 269.2976 15.31705540296476

JSON: /api/v1/satellites/48440 · /tle

For live sub-satellite position, see the globe view (requires WebGL).

§ Visibility from observer

Set your observer location to see the next 7 days of passes ≥ 10°. The values pass through the URL so the page stays shareable.

No JS? Fill the form by hand. The geolocation button needs JavaScript.